| time (UTC) | temp F | wind direction | speed knots | gust knots | rain 1hr in | rain 24hr in | rain mn in | humidity % | barometer mb |
| 20260507193332 | 63 | 113 | 0.0 | 0.0 | 0.00 | 0.00 | 0.00 | 60 | 978.5 |
| 20260507192337 | 63 | 113 | 0.0 | 0.0 | 0.00 | 0.00 | 0.00 | 59 | 978.6 |
| 20260507190154 | 61 | 111 | 0.0 | 0.0 | 0.00 | 0.00 | 0.00 | 58 | 978.7 |
| 20260507185217 | 61 | 114 | 0.0 | 0.0 | 0.00 | 0.00 | 0.00 | 57 | 978.6 |
| 20260507184210 | 61 | 114 | 0.0 | 0.0 | 0.00 | 0.00 | 0.00 | 58 | 977.8 |
| 20260507183231 | 62 | 111 | 0.0 | 0.0 | 0.00 | 0.00 | 0.00 | 57 | 978.6 |
| 20260507182244 | 61 | 111 | 0.0 | 0.0 | 0.00 | 0.00 | 0.00 | 56 | 978.0 |
| 20260507181212 | 62 | 111 | 0.0 | 0.0 | 0.00 | 0.00 | 0.00 | 57 | 978.3 |
| 20260507180221 | 62 | 111 | 0.0 | 0.0 | 0.00 | 0.00 | 0.00 | 58 | 978.3 |
| 20260507175209 | 63 | 106 | 0.0 | 0.0 | 0.00 | 0.00 | 0.00 | 57 | 978.8 |
| 20260507174145 | 63 | 145 | 0.0 | 0.9 | 0.00 | 0.00 | 0.00 | 49 | 978.9 |
| 20260507173122 | 63 | 138 | 0.0 | 0.0 | 0.00 | 0.00 | 0.00 | 24 | 978.7 |
| 20260507170944 | 60 | 169 | 0.0 | 0.0 | 0.00 | 0.00 | 0.00 | 1 | 978.3 |
| 20260507165929 | 60 | 159 | 0.0 | 0.9 | 0.00 | 0.00 | 0.00 | 1 | 977.9 |
| 20260507164941 | 60 | 329 | 0.0 | 0.0 | 0.00 | 0.00 | 0.00 | 1 | 978.3 |
| 20260507163924 | 59 | 329 | 0.0 | 0.0 | 0.00 | 0.00 | 0.00 | 1 | 979.5 |
| 20260507162928 | 59 | 329 | 0.0 | 0.0 | 0.00 | 0.00 | 0.00 | 1 | 979.3 |
| 20260507155553 | 59 | 0 | 0.0 | 0.0 | 0.00 | 0.00 | 0.00 | 1 | 979.9 |
| 20260507154531 | 60 | 12 | 0.0 | 0.0 | 0.00 | 0.00 | 0.00 | 1 | 979.5 |
| 20260507153555 | 59 | 11 | 0.0 | 0.0 | 0.00 | 0.00 | 0.00 | 1 | 979.4 |
| 20260507152552 | 59 | 12 | 0.0 | 0.0 | 0.00 | 0.00 | 0.00 | 1 | 980.0 |
| 20260507151545 | 59 | 0 | 0.0 | 0.0 | 0.00 | 0.00 | 0.00 | 1 | 979.7 |
| 20260507150519 | 59 | 5 | 0.0 | 0.0 | 0.00 | 0.00 | 0.00 | 1 | 979.8 |
| 20260507145527 | 59 | 5 | 0.0 | 0.0 | 0.00 | 0.00 | 0.00 | 1 | 979.9 |
| 20260507144540 | 59 | 5 | 0.0 | 0.0 | 0.00 | 0.00 | 0.00 | 1 | 979.9 |
| 20260507143515 | 59 | 5 | 0.0 | 0.0 | 0.00 | 0.00 | 0.00 | 1 | 979.9 |
| 20260507141355 | 59 | 5 | 0.0 | 0.0 | 0.00 | 0.00 | 0.00 | 1 | 979.3 |
| 20260507140323 | 59 | 5 | 0.0 | 0.0 | 0.00 | 0.00 | 0.00 | 1 | 979.5 |
| 20260507135321 | 58 | 5 | 0.0 | 0.0 | 0.00 | 0.00 | 0.00 | 1 | 979.3 |
| 20260507134334 | 58 | 5 | 0.0 | 0.0 | 0.00 | 0.00 | 0.00 | 1 | 979.2 |
| 20260507132243 | 58 | 338 | 0.0 | 0.0 | 0.00 | 0.00 | 0.00 | 1 | 978.8 |
| 20260507131243 | 58 | 337 | 0.0 | 0.0 | 0.00 | 0.00 | 0.00 | 1 | 978.9 |
| 20260507130213 | 58 | 342 | 0.0 | 0.0 | 0.00 | 0.00 | 0.00 | 1 | 978.8 |
| 20260507124024 | 58 | 336 | 0.0 | 0.0 | 0.00 | 0.00 | 0.00 | 1 | 978.8 |
| 20260507123015 | 58 | 334 | 0.0 | 0.0 | 0.00 | 0.00 | 0.00 | 1 | 979.0 |
| 20260507120826 | 58 | 334 | 0.0 | 0.0 | 0.00 | 0.00 | 0.00 | 1 | 978.5 |
| 20260507114625 | 58 | 339 | 0.0 | 0.0 | 0.00 | 0.00 | 0.00 | 1 | 977.9 |
| 20260507113614 | 58 | 335 | 0.0 | 0.0 | 0.00 | 0.00 | 0.00 | 1 | 977.9 |
| 20260507112604 | 58 | 335 | 0.0 | 0.0 | 0.00 | 0.00 | 0.00 | 1 | 977.9 |
| 20260507111620 | 58 | 335 | 0.0 | 0.0 | 0.00 | 0.00 | 0.00 | 1 | 978.0 |
| 20260507110613 | 59 | 333 | 0.0 | 0.0 | 0.00 | 0.00 | 0.00 | 1 | 978.0 |
| 20260507105605 | 59 | 333 | 0.0 | 0.0 | 0.00 | 0.00 | 0.00 | 1 | 978.1 |
| 20260507104600 | 59 | 334 | 0.0 | 0.0 | 0.00 | 0.00 | 0.00 | 1 | 977.9 |
| 20260507102507 | 59 | 333 | 0.0 | 0.0 | 0.00 | 0.00 | 0.00 | 1 | 977.6 |
| 20260507101516 | 59 | 333 | 0.0 | 0.0 | 0.00 | 0.00 | 0.00 | 1 | 977.4 |
| 20260507100509 | 59 | 333 | 0.0 | 0.0 | 0.00 | 0.00 | 0.00 | 1 | 977.6 |
| 20260507095454 | 59 | 333 | 0.0 | 0.0 | 0.00 | 0.00 | 0.00 | 1 | 977.3 |
| 20260507094502 | 59 | 333 | 0.0 | 0.0 | 0.00 | 0.00 | 0.00 | 1 | 977.7 |
| 20260507093508 | 59 | 331 | 0.0 | 0.0 | 0.00 | 0.00 | 0.00 | 1 | 977.7 |
| 20260507092453 | 59 | 331 | 0.0 | 0.0 | 0.00 | 0.00 | 0.00 | 1 | 977.3 |
| 20260507091500 | 59 | 331 | 0.0 | 0.0 | 0.00 | 0.00 | 0.00 | 1 | 977.2 |
| 20260507090428 | 59 | 331 | 0.0 | 0.0 | 0.00 | 0.00 | 0.00 | 1 | 977.4 |
| 20260507085449 | 59 | 331 | 0.0 | 0.0 | 0.00 | 0.00 | 0.00 | 1 | 976.9 |
| 20260507084428 | 59 | 331 | 0.0 | 0.0 | 0.00 | 0.00 | 0.00 | 1 | 976.7 |
| 20260507083439 | 59 | 331 | 0.0 | 0.0 | 0.00 | 0.00 | 0.00 | 1 | 976.8 |
| 20260507082450 | 59 | 331 | 0.0 | 0.0 | 0.00 | 0.00 | 0.00 | 1 | 976.6 |
| 20260507081514 | 59 | 331 | 0.0 | 0.0 | 0.00 | 0.00 | 0.00 | 1 | 976.9 |
| 20260507080503 | 59 | 331 | 0.0 | 0.0 | 0.00 | 0.00 | 0.00 | 1 | 976.5 |
| 20260507075503 | 59 | 331 | 0.0 | 0.0 | 0.00 | 0.00 | 0.00 | 1 | 976.5 |
| 20260507074444 | 59 | 331 | 0.0 | 0.0 | 0.00 | 0.00 | 0.00 | 1 | 976.3 |
| 20260507073433 | 59 | 332 | 0.0 | 0.0 | 0.00 | 0.00 | 0.00 | 1 | 976.6 |
| 20260507072440 | 59 | 332 | 0.0 | 0.9 | 0.00 | 0.00 | 0.00 | 1 | 976.2 |
| 20260507071412 | 59 | 332 | 0.0 | 0.0 | 0.00 | 0.00 | 0.00 | 1 | 975.9 |
| 20260507065241 | 59 | 332 | 0.0 | 0.0 | 0.00 | 0.00 | 0.00 | 1 | 976.1 |
| 20260507064248 | 59 | 332 | 0.0 | 0.0 | 0.00 | 0.00 | 0.00 | 2 | 976.3 |
| 20260507063259 | 59 | 332 | 0.0 | 1.7 | 0.00 | 0.00 | 0.00 | 4 | 975.8 |
| 20260507062244 | 60 | 341 | 0.0 | 1.7 | 0.00 | 0.00 | 0.00 | 2 | 976.2 |
| 20260507060054 | 60 | 342 | 0.0 | 0.0 | 0.00 | 0.00 | 0.00 | 1 | 976.3 |
| 20260507055024 | 60 | 342 | 0.0 | 0.0 | 0.00 | 0.00 | 0.00 | 1 | 976.3 |
| 20260507054015 | 60 | 342 | 0.0 | 0.0 | 0.00 | 0.00 | 0.00 | 4 | 976.2 |
| 20260507052947 | 60 | 342 | 0.0 | 0.0 | 0.00 | 0.00 | 0.00 | 8 | 976.0 |
| 20260507045714 | 60 | 344 | 0.0 | 0.0 | 0.00 | 0.00 | 0.00 | 11 | 976.0 |
| 20260507044724 | 60 | 344 | 0.0 | 0.0 | 0.00 | 0.00 | 0.00 | 7 | 975.7 |
| 20260507043658 | 60 | 344 | 0.0 | 0.0 | 0.00 | 0.00 | 0.00 | 6 | 976.3 |
| 20260507042656 | 60 | 346 | 0.0 | 0.0 | 0.00 | 0.00 | 0.00 | 8 | 976.1 |
| 20260507041703 | 60 | 346 | 0.0 | 0.0 | 0.00 | 0.00 | 0.00 | 7 | 976.1 |
| 20260507035554 | 61 | 346 | 0.0 | 0.0 | 0.00 | 0.00 | 0.00 | 1 | 976.2 |
| 20260507034536 | 61 | 346 | 0.0 | 0.0 | 0.00 | 0.00 | 0.00 | 1 | 976.4 |
| 20260507033601 | 61 | 346 | 0.0 | 0.0 | 0.00 | 0.00 | 0.00 | 1 | 976.1 |
| 20260507032550 | 61 | 347 | 0.0 | 0.0 | 0.00 | 0.00 | 0.00 | 1 | 975.9 |
| 20260507031613 | 61 | 346 | 0.0 | 0.0 | 0.00 | 0.00 | 0.00 | 1 | 975.9 |
| 20260507030625 | 61 | 346 | 0.0 | 0.0 | 0.00 | 0.00 | 0.00 | 1 | 975.8 |
| 20260507023322 | 61 | 344 | 0.0 | 0.0 | 0.00 | 0.00 | 0.00 | 3 | 975.9 |
| 20260507021211 | 61 | 344 | 0.0 | 0.0 | 0.00 | 0.00 | 0.00 | 8 | 975.2 |
| 20260507015033 | 61 | 344 | 0.0 | 0.0 | 0.00 | 0.00 | 0.00 | 12 | 974.9 |
| 20260507014031 | 61 | 344 | 0.0 | 0.0 | 0.00 | 0.00 | 0.00 | 13 | 974.8 |
| 20260507013032 | 61 | 344 | 0.0 | 0.0 | 0.00 | 0.00 | 0.00 | 14 | 974.8 |
| 20260507012054 | 62 | 344 | 0.0 | 0.0 | 0.00 | 0.00 | 0.00 | 15 | 974.3 |
| 20260507011032 | 62 | 344 | 0.0 | 0.0 | 0.00 | 0.00 | 0.00 | 20 | 974.2 |
| 20260507005958 | 62 | 344 | 0.0 | 0.0 | 0.00 | 0.00 | 0.00 | 21 | 974.3 |
| 20260507005015 | 62 | 344 | 0.0 | 0.0 | 0.00 | 0.00 | 0.00 | 18 | 974.2 |
| 20260507002920 | 62 | 344 | 0.0 | 0.0 | 0.00 | 0.00 | 0.00 | 28 | 974.1 |
| 20260507001910 | 62 | 344 | 0.0 | 0.0 | 0.00 | 0.00 | 0.00 | 30 | 973.6 |
| 20260507000901 | 62 | 344 | 0.0 | 0.0 | 0.00 | 0.00 | 0.00 | 31 | 973.7 |
| 20260506235840 | 62 | 344 | 0.0 | 0.0 | 0.00 | 0.00 | 0.00 | 33 | 974.0 |
| 20260506234853 | 62 | 344 | 0.0 | 0.0 | 0.00 | 0.00 | 0.00 | 36 | 973.6 |
| 20260506233834 | 62 | 344 | 0.0 | 0.0 | 0.00 | 0.00 | 0.00 | 33 | 973.9 |
| 20260506232850 | 62 | 344 | 0.0 | 0.0 | 0.00 | 0.00 | 0.00 | 36 | 973.4 |
| 20260506230709 | 62 | 344 | 0.0 | 0.0 | 0.00 | 0.00 | 0.00 | 33 | 973.5 |
| 20260506225651 | 62 | 344 | 0.0 | 0.0 | 0.00 | 0.00 | 0.00 | 33 | 973.3 |
| 20260506224708 | 62 | 343 | 0.0 | 0.0 | 0.00 | 0.00 | 0.00 | 27 | 973.7 |
| 20260506222519 | 62 | 342 | 0.0 | 0.0 | 0.00 | 0.00 | 0.00 | 30 | 973.4 |
| 20260506221452 | 61 | 341 | 0.0 | 0.0 | 0.00 | 0.00 | 0.00 | 32 | 973.4 |
| 20260506220445 | 61 | 341 | 0.0 | 0.0 | 0.00 | 0.00 | 0.00 | 35 | 973.4 |
| 20260506215447 | 61 | 340 | 0.0 | 0.9 | 0.00 | 0.00 | 0.00 | 44 | 973.6 |
| 20260506214509 | 62 | 340 | 0.0 | 0.9 | 0.00 | 0.00 | 0.00 | 50 | 973.4 |
| 20260506213534 | 62 | 331 | 0.0 | 0.0 | 0.00 | 0.00 | 0.00 | 50 | 973.3 |
| 20260506212522 | 63 | 13 | 0.0 | 0.0 | 0.00 | 0.00 | 0.00 | 51 | 973.3 |
| 20260506211545 | 63 | 13 | 0.0 | 0.0 | 0.00 | 0.00 | 0.00 | 53 | 973.5 |
| 20260506210547 | 64 | 13 | 0.0 | 0.0 | 0.00 | 0.00 | 0.00 | 58 | 973.6 |
| 20260506205546 | 64 | 13 | 0.0 | 0.0 | 0.00 | 0.00 | 0.00 | 59 | 973.7 |
| 20260506203349 | 65 | 14 | 0.0 | 0.0 | 0.00 | 0.00 | 0.00 | 61 | 973.8 |
| 20260506202403 | 68 | 14 | 0.0 | 0.0 | 0.00 | 0.00 | 0.00 | 62 | 973.8 |
| 20260506201427 | 69 | 13 | 0.0 | 0.0 | 0.00 | 0.00 | 0.00 | 61 | 973.7 |
| 20260506200413 | 71 | 9 | 0.0 | 0.0 | 0.00 | 0.00 | 0.00 | 60 | 973.7 |
| 20260506195430 | 70 | 5 | 0.0 | 0.0 | 0.00 | 0.00 | 0.00 | 59 | 973.5 |
| 20260506194455 | 69 | 5 | 0.0 | 0.0 | 0.00 | 0.00 | 0.00 | 59 | 973.4 |